{"data":{"norad_id":32791,"intl_designator":"2008-021J","name":"SEEDS II (CO-66)","alt_names":[],"object_type":"PAYLOAD","status":"ACTIVE","operator":null,"country":"JPN","launch_date":"2008-04-28","launch_site_code":"SRILR","launch_vehicle":null,"mission":null,"orbit_class":"UNKNOWN","rcs_meters":0.049,"size_class":null,"mass_kg":null,"dimensions":null,"purposes":["comms","tech_demo"],"wikipedia_slug":null,"has_3d_model":false,"image_url":null,"decayed_at":null,"tle_current":{"epoch":"2026-09-19T23:10:16.760064Z","epoch_age_seconds":60565,"freshness":"FRESH","line1":"1 32791U 08021J   26262.96547176  .00014057  00000+0  40691-3 0  9995","line2":"2 32791  97.7577 265.6353 0002394  30.6292 329.5090 15.35713894  1810","mean_motion":15.35713894,"eccentricity":0.0002394,"inclination_deg":97.7577,"raan_deg":265.6353,"arg_perigee_deg":30.6292,"mean_anomaly_deg":329.509,"bstar":0.00040691,"rev_number":181,"period_min":93.767465777711,"perigee_km":457.16409194381,"apogee_km":460.43761778872,"semimajor_km":6836.9378548663,"source":"CELESTRAK","updated_at":"2026-09-20T09:00:47.987086Z"}}}